Year,Month,Day,Hour,Minute,Value (Times are PST for temperature in C)
2016,03,29,00,00,6.20
2016,03,29,00,01,6.20
2016,03,29,00,02,6.10
2016,03,29,00,03,6.10
2016,03,29,00,04,6.00
2016,03,29,00,05,6.00
2016,03,29,00,06,5.90
2016,03,29,00,07,5.90
2016,03,29,00,08,5.90
2016,03,29,00,09,5.80
2016,03,29,00,10,5.80
2016,03,29,00,11,5.80
2016,03,29,00,12,5.80
2016,03,29,00,13,5.70
2016,03,29,00,14,5.70
2016,03,29,00,15,5.70
2016,03,29,00,16,5.70
2016,03,29,00,17,5.70
2016,03,29,00,18,5.60
2016,03,29,00,19,5.60
2016,03,29,00,20,5.60
2016,03,29,00,21,5.60
2016,03,29,00,22,5.60
2016,03,29,00,23,5.60
2016,03,29,00,24,5.60
2016,03,29,00,25,5.60
2016,03,29,00,26,5.60
2016,03,29,00,27,5.50
2016,03,29,00,28,5.50
2016,03,29,00,29,5.40
2016,03,29,00,30,5.40
2016,03,29,00,31,5.40
2016,03,29,00,32,5.30
2016,03,29,00,33,5.30
2016,03,29,00,34,5.30
2016,03,29,00,35,5.30
2016,03,29,00,36,5.20
2016,03,29,00,37,5.20
2016,03,29,00,38,5.20
2016,03,29,00,39,5.10
2016,03,29,00,40,5.10
2016,03,29,00,41,5.10
2016,03,29,00,42,5.10
2016,03,29,00,43,5.10
2016,03,29,00,44,5.00
2016,03,29,00,45,5.00
2016,03,29,00,46,5.00
2016,03,29,00,47,5.00
2016,03,29,00,48,5.00
2016,03,29,00,49,4.90
2016,03,29,00,50,4.90
2016,03,29,00,51,4.90
2016,03,29,00,52,4.90
2016,03,29,00,53,4.90
2016,03,29,00,54,4.90
2016,03,29,00,55,4.90
2016,03,29,00,56,4.90
2016,03,29,00,57,4.90
2016,03,29,00,58,4.80
2016,03,29,00,59,4.80
2016,03,29,01,00,4.80
2016,03,29,01,01,4.80
2016,03,29,01,02,4.80
2016,03,29,01,03,4.70
2016,03,29,01,04,4.70
2016,03,29,01,05,4.70
2016,03,29,01,06,4.70
2016,03,29,01,07,4.70
2016,03,29,01,08,4.70
2016,03,29,01,09,4.70
2016,03,29,01,10,4.70
2016,03,29,01,11,4.70
2016,03,29,01,12,4.60
2016,03,29,01,13,4.60
2016,03,29,01,14,4.60
2016,03,29,01,15,4.60
2016,03,29,01,16,4.60
2016,03,29,01,17,4.60
2016,03,29,01,18,4.60
2016,03,29,01,19,4.60
2016,03,29,01,20,4.60
2016,03,29,01,21,4.40
2016,03,29,01,22,4.40
2016,03,29,01,23,4.40
2016,03,29,01,24,4.40
2016,03,29,01,25,4.40
2016,03,29,01,26,4.40
2016,03,29,01,27,4.40
2016,03,29,01,28,4.40
2016,03,29,01,29,4.50
2016,03,29,01,30,4.50
2016,03,29,01,31,4.50
2016,03,29,01,32,4.50
2016,03,29,01,33,4.50
2016,03,29,01,34,4.50
2016,03,29,01,35,4.50
2016,03,29,01,36,4.50
2016,03,29,01,37,4.50
2016,03,29,01,38,4.60
2016,03,29,01,39,4.60
2016,03,29,01,40,4.60
2016,03,29,01,41,4.60
2016,03,29,01,42,4.60
2016,03,29,01,43,4.60
2016,03,29,01,44,4.60
2016,03,29,01,45,4.60
2016,03,29,01,46,4.60
2016,03,29,01,47,4.60
2016,03,29,01,48,4.60
2016,03,29,01,49,4.60
2016,03,29,01,50,4.60
2016,03,29,01,51,4.60
2016,03,29,01,52,4.60
2016,03,29,01,53,4.60
2016,03,29,01,54,4.60
2016,03,29,01,55,4.60
2016,03,29,01,56,4.70
2016,03,29,01,57,4.70
2016,03,29,01,58,4.70
2016,03,29,01,59,4.70
2016,03,29,02,00,4.80
2016,03,29,02,01,4.80
2016,03,29,02,02,4.80
2016,03,29,02,03,4.80
2016,03,29,02,04,4.70
2016,03,29,02,05,4.70
2016,03,29,02,06,4.70
2016,03,29,02,07,4.70
2016,03,29,02,08,4.60
2016,03,29,02,09,4.60
2016,03,29,02,10,4.60
2016,03,29,02,11,4.60
2016,03,29,02,12,4.50
2016,03,29,02,13,4.50
2016,03,29,02,14,4.50
2016,03,29,02,15,4.40
2016,03,29,02,16,4.40
2016,03,29,02,17,4.50
2016,03,29,02,18,4.50
2016,03,29,02,19,4.60
2016,03,29,02,20,4.60
2016,03,29,02,21,4.60
2016,03,29,02,22,4.60
2016,03,29,02,23,4.60
2016,03,29,02,24,4.60
2016,03,29,02,25,4.60
2016,03,29,02,26,4.50
2016,03,29,02,27,4.50
2016,03,29,02,28,4.50
2016,03,29,02,29,4.40
2016,03,29,02,30,4.40
2016,03,29,02,31,4.30
2016,03,29,02,32,4.30
2016,03,29,02,33,4.30
2016,03,29,02,34,4.40
2016,03,29,02,35,4.40
2016,03,29,02,36,4.40
2016,03,29,02,37,4.50
2016,03,29,02,38,4.60
2016,03,29,02,39,4.60
2016,03,29,02,40,4.70
2016,03,29,02,41,4.80
2016,03,29,02,42,4.80
2016,03,29,02,43,4.80
2016,03,29,02,44,4.80
2016,03,29,02,45,4.80
2016,03,29,02,46,4.80
2016,03,29,02,47,4.90
2016,03,29,02,48,4.90
2016,03,29,02,49,4.90
2016,03,29,02,50,4.90
2016,03,29,02,51,4.90
2016,03,29,02,52,4.90
2016,03,29,02,53,4.90
2016,03,29,02,54,4.90
2016,03,29,02,55,5.00
2016,03,29,02,56,5.00
2016,03,29,02,57,4.90
2016,03,29,02,58,4.90
2016,03,29,02,59,4.90
2016,03,29,03,00,5.00
2016,03,29,03,01,5.00
2016,03,29,03,02,5.00
2016,03,29,03,03,5.00
2016,03,29,03,04,5.00
2016,03,29,03,05,5.00
2016,03,29,03,06,5.00
2016,03,29,03,07,5.10
2016,03,29,03,08,5.10
2016,03,29,03,09,5.10
2016,03,29,03,10,5.10
2016,03,29,03,11,5.20
2016,03,29,03,12,5.20
2016,03,29,03,13,5.20
2016,03,29,03,14,5.20
2016,03,29,03,15,5.20
2016,03,29,03,16,5.30
2016,03,29,03,17,5.30
2016,03,29,03,18,5.30
2016,03,29,03,19,5.30
2016,03,29,03,20,5.30
2016,03,29,03,21,5.30
2016,03,29,03,22,5.30
2016,03,29,03,23,5.30
2016,03,29,03,24,5.40
2016,03,29,03,25,5.40
2016,03,29,03,26,5.40
2016,03,29,03,27,5.40
2016,03,29,03,28,5.50
2016,03,29,03,29,5.50
2016,03,29,03,30,5.50
2016,03,29,03,31,5.50
2016,03,29,03,32,5.50
2016,03,29,03,33,5.50
2016,03,29,03,34,5.60
2016,03,29,03,35,5.60
2016,03,29,03,36,5.60
2016,03,29,03,37,5.60
2016,03,29,03,38,5.60
2016,03,29,03,39,5.60
2016,03,29,03,40,5.60
2016,03,29,03,41,5.60
2016,03,29,03,42,5.60
2016,03,29,03,43,5.60
2016,03,29,03,44,5.60
2016,03,29,03,45,5.60
2016,03,29,03,46,5.50
2016,03,29,03,47,5.50
2016,03,29,03,48,5.50
2016,03,29,03,49,5.50
2016,03,29,03,50,5.60
2016,03,29,03,51,5.60
2016,03,29,03,52,5.60
2016,03,29,03,53,5.60
2016,03,29,03,54,5.70
2016,03,29,03,55,5.70
2016,03,29,03,56,5.80
2016,03,29,03,57,5.90
2016,03,29,03,58,5.90
2016,03,29,03,59,6.00
2016,03,29,04,00,6.00
2016,03,29,04,01,6.10
2016,03,29,04,02,6.20
2016,03,29,04,03,6.20
2016,03,29,04,04,6.30
2016,03,29,04,05,6.30
2016,03,29,04,06,6.40
2016,03,29,04,07,6.50
2016,03,29,04,08,6.50
2016,03,29,04,09,6.60
2016,03,29,04,10,6.70
2016,03,29,04,11,6.70
2016,03,29,04,12,6.80
2016,03,29,04,13,6.80
2016,03,29,04,14,6.90
2016,03,29,04,15,6.90
2016,03,29,04,16,7.00
2016,03,29,04,17,7.00
2016,03,29,04,18,7.10
2016,03,29,04,19,7.10
2016,03,29,04,20,7.10
2016,03,29,04,21,7.10
2016,03,29,04,22,7.10
2016,03,29,04,23,7.20
2016,03,29,04,24,7.20
2016,03,29,04,25,7.20
2016,03,29,04,26,7.20
2016,03,29,04,27,7.30
2016,03,29,04,28,7.30
2016,03,29,04,29,7.30
2016,03,29,04,30,7.30
2016,03,29,04,31,7.30
2016,03,29,04,32,7.30
2016,03,29,04,33,7.30
2016,03,29,04,34,7.30
2016,03,29,04,35,7.30
2016,03,29,04,36,7.30
2016,03,29,04,37,7.30
2016,03,29,04,38,7.20
2016,03,29,04,39,7.20
2016,03,29,04,40,7.20
2016,03,29,04,41,7.10
2016,03,29,04,42,7.00
2016,03,29,04,43,7.00
2016,03,29,04,44,6.90
2016,03,29,04,45,6.90
2016,03,29,04,46,6.80
2016,03,29,04,47,6.80
2016,03,29,04,48,6.80
2016,03,29,04,49,6.70
2016,03,29,04,50,6.70
2016,03,29,04,51,6.70
2016,03,29,04,52,6.60
2016,03,29,04,53,6.60
2016,03,29,04,54,6.50
2016,03,29,04,55,6.50
2016,03,29,04,56,6.40
2016,03,29,04,57,6.50
2016,03,29,04,58,6.50
2016,03,29,04,59,6.60
2016,03,29,05,00,6.60
2016,03,29,05,01,6.60
2016,03,29,05,02,6.70
2016,03,29,05,03,6.70
2016,03,29,05,04,6.70
2016,03,29,05,05,6.70
2016,03,29,05,06,6.70
2016,03,29,05,07,6.70
2016,03,29,05,08,6.80
2016,03,29,05,09,6.80
2016,03,29,05,10,6.90
2016,03,29,05,11,6.90
2016,03,29,05,12,7.00
2016,03,29,05,13,7.00
2016,03,29,05,14,7.00
2016,03,29,05,15,7.00
2016,03,29,05,16,7.00
2016,03,29,05,17,6.90
2016,03,29,05,18,6.80
2016,03,29,05,19,6.70
2016,03,29,05,20,6.60
2016,03,29,05,21,6.50
2016,03,29,05,22,6.40
2016,03,29,05,23,6.30
2016,03,29,05,24,6.20
2016,03,29,05,25,6.10
2016,03,29,05,26,6.00
2016,03,29,05,27,6.00
2016,03,29,05,28,5.90
2016,03,29,05,29,5.90
2016,03,29,05,30,5.90
2016,03,29,05,31,5.90
2016,03,29,05,32,5.90
2016,03,29,05,33,5.80
2016,03,29,05,34,5.80
2016,03,29,05,35,5.80
2016,03,29,05,36,5.70
2016,03,29,05,37,5.70
2016,03,29,05,38,5.60
2016,03,29,05,39,5.60
2016,03,29,05,40,5.50
2016,03,29,05,41,5.40
2016,03,29,05,42,5.40
2016,03,29,05,43,5.40
2016,03,29,05,44,5.40
2016,03,29,05,45,5.40
2016,03,29,05,46,5.40
2016,03,29,05,47,5.50
2016,03,29,05,48,5.50
2016,03,29,05,49,5.50
2016,03,29,05,50,5.60
2016,03,29,05,51,5.70
2016,03,29,05,52,5.80
2016,03,29,05,53,5.90
2016,03,29,05,54,6.00
2016,03,29,05,55,6.00
2016,03,29,05,56,6.10
2016,03,29,05,57,6.10
2016,03,29,05,58,6.10
2016,03,29,05,59,6.10
2016,03,29,06,00,6.10
2016,03,29,06,01,6.10
2016,03,29,06,02,6.00
2016,03,29,06,03,6.00
2016,03,29,06,04,5.90
2016,03,29,06,05,5.90
2016,03,29,06,06,5.90
2016,03,29,06,07,6.00
2016,03,29,06,08,6.00
2016,03,29,06,09,6.00
2016,03,29,06,10,5.90
2016,03,29,06,11,5.80
2016,03,29,06,12,5.80
2016,03,29,06,13,5.70
2016,03,29,06,14,5.70
2016,03,29,06,15,5.80
2016,03,29,06,16,5.80
2016,03,29,06,17,5.80
2016,03,29,06,18,5.80
2016,03,29,06,19,5.80
2016,03,29,06,20,5.80
2016,03,29,06,21,5.70
2016,03,29,06,22,5.60
2016,03,29,06,23,5.50
2016,03,29,06,24,5.50
2016,03,29,06,25,5.50
2016,03,29,06,26,5.60
2016,03,29,06,27,5.70
2016,03,29,06,28,5.70
2016,03,29,06,29,5.60
2016,03,29,06,30,5.60
2016,03,29,06,31,5.50
2016,03,29,06,32,5.50
2016,03,29,06,33,5.50
2016,03,29,06,34,5.60
2016,03,29,06,35,5.60
2016,03,29,06,36,5.60
2016,03,29,06,37,5.50
2016,03,29,06,38,5.50
2016,03,29,06,39,5.50
2016,03,29,06,40,5.40
2016,03,29,06,41,5.40
2016,03,29,06,42,5.30
2016,03,29,06,43,5.30
2016,03,29,06,44,5.20
2016,03,29,06,45,5.20
2016,03,29,06,46,5.10
2016,03,29,06,47,5.00
2016,03,29,06,48,5.00
2016,03,29,06,49,4.90
2016,03,29,06,50,4.90
2016,03,29,06,51,4.90
2016,03,29,06,52,4.80
2016,03,29,06,53,4.80
2016,03,29,06,54,4.80
2016,03,29,06,55,4.70
2016,03,29,06,56,4.70
2016,03,29,06,57,4.70
2016,03,29,06,58,4.60
2016,03,29,06,59,4.60
2016,03,29,07,00,4.60
2016,03,29,07,01,4.60
2016,03,29,07,02,4.60
2016,03,29,07,03,4.60
2016,03,29,07,04,4.60
2016,03,29,07,05,4.60
2016,03,29,07,06,4.60
2016,03,29,07,07,4.50
2016,03,29,07,08,4.50
2016,03,29,07,09,4.50
2016,03,29,07,10,4.50
2016,03,29,07,11,4.50
2016,03,29,07,12,4.40
2016,03,29,07,13,4.40
2016,03,29,07,14,4.40
2016,03,29,07,15,4.40
2016,03,29,07,16,4.40
2016,03,29,07,17,4.50
2016,03,29,07,18,4.50
2016,03,29,07,19,4.50
2016,03,29,07,20,4.50
2016,03,29,07,21,4.50
2016,03,29,07,22,4.50
2016,03,29,07,23,4.50
2016,03,29,07,24,4.60
2016,03,29,07,25,4.60
2016,03,29,07,26,4.60
2016,03,29,07,27,4.60
2016,03,29,07,28,4.70
2016,03,29,07,29,4.80
2016,03,29,07,30,4.90
2016,03,29,07,31,4.90
2016,03,29,07,32,5.00
2016,03,29,07,33,5.10
2016,03,29,07,34,5.20
2016,03,29,07,35,5.30
2016,03,29,07,36,5.40
2016,03,29,07,37,5.50
2016,03,29,07,38,5.60
2016,03,29,07,39,5.70
2016,03,29,07,40,5.70
2016,03,29,07,41,5.80
2016,03,29,07,42,5.80
2016,03,29,07,43,5.90
2016,03,29,07,44,5.90
2016,03,29,07,45,5.90
2016,03,29,07,46,6.00
2016,03,29,07,47,6.00
2016,03,29,07,48,6.00
2016,03,29,07,49,6.00
2016,03,29,07,50,6.00
2016,03,29,07,51,6.00
2016,03,29,07,52,6.00
2016,03,29,07,53,6.00
2016,03,29,07,54,6.00
2016,03,29,07,55,6.10
2016,03,29,07,56,6.10
2016,03,29,07,57,6.10
2016,03,29,07,58,6.10
2016,03,29,07,59,6.10
2016,03,29,08,00,6.20
2016,03,29,08,01,6.20
2016,03,29,08,02,6.30
2016,03,29,08,03,6.40
2016,03,29,08,04,6.40
2016,03,29,08,05,6.50
2016,03,29,08,06,6.60
2016,03,29,08,07,6.70
2016,03,29,08,08,6.80
2016,03,29,08,09,6.80
2016,03,29,08,10,6.90
2016,03,29,08,11,6.90
2016,03,29,08,12,6.90
2016,03,29,08,13,7.00
2016,03,29,08,14,7.00
2016,03,29,08,15,7.10
2016,03,29,08,16,7.10
2016,03,29,08,17,7.20
2016,03,29,08,18,7.20
2016,03,29,08,19,7.30
2016,03,29,08,20,7.40
2016,03,29,08,21,7.50
2016,03,29,08,22,7.60
2016,03,29,08,23,7.60
2016,03,29,08,24,7.70
2016,03,29,08,25,7.70
2016,03,29,08,26,7.70
2016,03,29,08,27,7.80
2016,03,29,08,28,7.80
2016,03,29,08,29,7.90
2016,03,29,08,30,7.90
2016,03,29,08,31,8.00
2016,03,29,08,32,8.10
2016,03,29,08,33,8.10
2016,03,29,08,34,8.20
2016,03,29,08,35,8.20
2016,03,29,08,36,8.30
2016,03,29,08,37,8.30
2016,03,29,08,38,8.40
2016,03,29,08,39,8.40
2016,03,29,08,40,8.50
2016,03,29,08,41,8.50
2016,03,29,08,42,8.60
2016,03,29,08,43,8.60
2016,03,29,08,44,8.70
2016,03,29,08,45,8.70
2016,03,29,08,46,8.80
2016,03,29,08,47,8.80
2016,03,29,08,48,8.80
2016,03,29,08,49,8.80
2016,03,29,08,50,8.90
2016,03,29,08,51,8.90
2016,03,29,08,52,9.00
2016,03,29,08,53,9.10
2016,03,29,08,54,9.10
2016,03,29,08,55,9.20
2016,03,29,08,56,9.20
2016,03,29,08,57,9.20
2016,03,29,08,58,9.30
2016,03,29,08,59,9.30
2016,03,29,09,00,9.40
2016,03,29,09,01,9.40
2016,03,29,09,02,9.40
2016,03,29,09,03,9.50
2016,03,29,09,04,9.50
2016,03,29,09,05,9.60
2016,03,29,09,06,9.60
2016,03,29,09,07,9.70
2016,03,29,09,08,9.70
2016,03,29,09,09,9.70
2016,03,29,09,10,9.80
2016,03,29,09,11,9.80
2016,03,29,09,12,9.80
2016,03,29,09,13,9.90
2016,03,29,09,14,10.00
2016,03,29,09,15,10.00
2016,03,29,09,16,10.10
2016,03,29,09,17,10.10
2016,03,29,09,18,10.20
2016,03,29,09,19,10.20
2016,03,29,09,20,10.20
2016,03,29,09,21,10.20
2016,03,29,09,22,10.20
2016,03,29,09,23,10.10
2016,03,29,09,24,10.10
2016,03,29,09,25,10.10
2016,03,29,09,26,10.10
2016,03,29,09,27,10.10
2016,03,29,09,28,10.10
2016,03,29,09,29,10.10
2016,03,29,09,30,10.10
2016,03,29,09,31,10.10
2016,03,29,09,32,10.10
2016,03,29,09,33,10.10
2016,03,29,09,34,10.10
2016,03,29,09,35,10.10
2016,03,29,09,36,10.20
2016,03,29,09,37,10.20
2016,03,29,09,38,10.20
2016,03,29,09,39,10.20
2016,03,29,09,40,10.30
2016,03,29,09,41,10.30
2016,03,29,09,42,10.30
2016,03,29,09,43,10.30
2016,03,29,09,44,10.30
2016,03,29,09,45,10.30
2016,03,29,09,46,10.40
2016,03,29,09,47,10.30
2016,03,29,09,48,10.30
2016,03,29,09,49,10.40
2016,03,29,09,50,10.40
2016,03,29,09,51,10.40
2016,03,29,09,52,10.50
2016,03,29,09,53,10.50
2016,03,29,09,54,10.50
2016,03,29,09,55,10.60
2016,03,29,09,56,10.60
2016,03,29,09,57,10.60
2016,03,29,09,58,10.60
2016,03,29,09,59,10.60
2016,03,29,10,00,10.60
2016,03,29,10,01,10.70
2016,03,29,10,02,10.70
2016,03,29,10,03,10.70
2016,03,29,10,04,10.70
2016,03,29,10,05,10.80
2016,03,29,10,06,10.80
2016,03,29,10,07,10.80
2016,03,29,10,08,10.80
2016,03,29,10,09,10.90
2016,03,29,10,10,10.90
2016,03,29,10,11,10.90
2016,03,29,10,12,11.00
2016,03,29,10,13,11.00
2016,03,29,10,14,11.00
2016,03,29,10,15,11.00
2016,03,29,10,16,11.10
2016,03,29,10,17,11.10
2016,03,29,10,18,11.10
2016,03,29,10,19,11.20
2016,03,29,10,20,11.20
2016,03,29,10,21,11.20
2016,03,29,10,22,11.30
2016,03,29,10,23,11.30
2016,03,29,10,24,11.30
2016,03,29,10,25,11.30
2016,03,29,10,26,11.30
2016,03,29,10,27,11.30
2016,03,29,10,28,11.30
2016,03,29,10,29,11.30
2016,03,29,10,30,11.30
2016,03,29,10,31,11.30
2016,03,29,10,32,11.30
2016,03,29,10,33,11.30
2016,03,29,10,34,11.30
2016,03,29,10,35,11.30
2016,03,29,10,36,11.30
2016,03,29,10,37,11.30
2016,03,29,10,38,11.30
2016,03,29,10,39,11.40
2016,03,29,10,40,11.40
2016,03,29,10,41,11.40
2016,03,29,10,42,11.50
2016,03,29,10,43,11.60
2016,03,29,10,44,11.60
2016,03,29,10,45,11.70
2016,03,29,10,46,11.70
2016,03,29,10,47,11.70
2016,03,29,10,48,11.80
2016,03,29,10,49,11.80
2016,03,29,10,50,11.80
2016,03,29,10,51,11.90
2016,03,29,10,52,11.90
2016,03,29,10,53,11.90
2016,03,29,10,54,11.90
2016,03,29,10,55,11.90
2016,03,29,10,56,12.00
2016,03,29,10,57,12.00
2016,03,29,10,58,12.00
2016,03,29,10,59,12.10
2016,03,29,11,00,12.10
2016,03,29,11,01,12.10
2016,03,29,11,02,12.20
2016,03,29,11,03,12.20
2016,03,29,11,04,12.20
2016,03,29,11,05,12.20
2016,03,29,11,06,12.20
2016,03,29,11,07,12.30
2016,03,29,11,08,12.30
2016,03,29,11,09,12.30
2016,03,29,11,10,12.30
2016,03,29,11,11,12.30
2016,03,29,11,12,12.30
2016,03,29,11,13,12.30
2016,03,29,11,14,12.30
2016,03,29,11,15,12.40
2016,03,29,11,16,12.50
2016,03,29,11,17,12.60
2016,03,29,11,18,12.70
2016,03,29,11,19,12.80
2016,03,29,11,20,12.80
2016,03,29,11,21,12.80
2016,03,29,11,22,12.80
2016,03,29,11,23,12.70
2016,03,29,11,24,12.70
2016,03,29,11,25,12.70
2016,03,29,11,26,12.70
2016,03,29,11,27,12.80
2016,03,29,11,28,12.80
2016,03,29,11,29,12.80
2016,03,29,11,30,12.80
2016,03,29,11,31,12.90
2016,03,29,11,32,12.90
2016,03,29,11,33,12.90
2016,03,29,11,34,12.80
2016,03,29,11,35,12.80
2016,03,29,11,36,12.80
2016,03,29,11,37,12.80
2016,03,29,11,38,12.80
2016,03,29,11,39,12.90
2016,03,29,11,40,12.90
2016,03,29,11,41,13.00
2016,03,29,11,42,13.00
2016,03,29,11,43,13.10
2016,03,29,11,44,13.10
2016,03,29,11,45,13.20
2016,03,29,11,46,13.20
2016,03,29,11,47,13.30
2016,03,29,11,48,13.30
2016,03,29,11,49,13.40
2016,03,29,11,50,13.40
2016,03,29,11,51,13.40
2016,03,29,11,52,13.50
2016,03,29,11,53,13.50
2016,03,29,11,54,13.50
2016,03,29,11,55,13.40
2016,03,29,11,56,13.40
2016,03,29,11,57,13.40
2016,03,29,11,58,13.40
2016,03,29,11,59,13.40
2016,03,29,12,00,13.40
2016,03,29,12,01,13.40
2016,03,29,12,02,13.40
2016,03,29,12,03,13.50
2016,03,29,12,04,13.50
2016,03,29,12,05,13.50
2016,03,29,12,06,13.60
2016,03,29,12,07,13.60
2016,03,29,12,08,13.50
2016,03,29,12,09,13.50
2016,03,29,12,10,13.50
2016,03,29,12,11,13.50
2016,03,29,12,12,13.50
2016,03,29,12,13,13.50
2016,03,29,12,14,13.50
2016,03,29,12,15,13.50
2016,03,29,12,16,13.60
2016,03,29,12,17,13.60
2016,03,29,12,18,13.70
2016,03,29,12,19,13.70
2016,03,29,12,20,13.70
2016,03,29,12,21,13.70
2016,03,29,12,22,13.80
2016,03,29,12,23,13.80
2016,03,29,12,24,13.80
2016,03,29,12,25,13.90
2016,03,29,12,26,13.90
2016,03,29,12,27,13.90
2016,03,29,12,28,13.90
2016,03,29,12,29,13.90
2016,03,29,12,30,13.90
2016,03,29,12,31,13.80
2016,03,29,12,32,13.80
2016,03,29,12,33,13.80
2016,03,29,12,34,13.80
2016,03,29,12,35,13.80
2016,03,29,12,36,13.80
2016,03,29,12,37,13.80
2016,03,29,12,38,13.80
2016,03,29,12,39,13.80
2016,03,29,12,40,13.80
2016,03,29,12,41,13.80
2016,03,29,12,42,13.90
2016,03,29,12,43,13.90
2016,03,29,12,44,13.90
2016,03,29,12,45,13.90
2016,03,29,12,46,14.00
2016,03,29,12,47,14.00
2016,03,29,12,48,14.00
2016,03,29,12,49,14.10
2016,03,29,12,50,14.10
2016,03,29,12,51,14.20
2016,03,29,12,52,14.20
2016,03,29,12,53,14.20
2016,03,29,12,54,14.30
2016,03,29,12,55,14.30
2016,03,29,12,56,14.40
2016,03,29,12,57,14.40
2016,03,29,12,58,14.50
2016,03,29,12,59,14.50
2016,03,29,13,00,14.50
2016,03,29,13,01,14.40
2016,03,29,13,02,14.30
2016,03,29,13,03,14.30
2016,03,29,13,04,14.20
2016,03,29,13,05,14.20
2016,03,29,13,06,14.20
2016,03,29,13,07,14.20
2016,03,29,13,08,14.30
2016,03,29,13,09,14.30
2016,03,29,13,10,14.30
2016,03,29,13,11,14.30
2016,03,29,13,12,14.40
2016,03,29,13,13,14.40
2016,03,29,13,14,14.50
2016,03,29,13,15,14.60
2016,03,29,13,16,14.60
2016,03,29,13,17,14.60
2016,03,29,13,18,14.60
2016,03,29,13,19,14.60
2016,03,29,13,20,14.60
2016,03,29,13,21,14.70
2016,03,29,13,22,14.70
2016,03,29,13,23,14.80
2016,03,29,13,24,14.80
2016,03,29,13,25,14.80
2016,03,29,13,26,14.80
2016,03,29,13,27,14.80
2016,03,29,13,28,14.70
2016,03,29,13,29,14.70
2016,03,29,13,30,14.80
2016,03,29,13,31,14.80
2016,03,29,13,32,14.80
2016,03,29,13,33,14.80
2016,03,29,13,34,14.90
2016,03,29,13,35,14.90
2016,03,29,13,36,14.90
2016,03,29,13,37,15.00
2016,03,29,13,38,15.00
2016,03,29,13,39,15.00
2016,03,29,13,40,15.10
2016,03,29,13,41,15.10
2016,03,29,13,42,15.10
2016,03,29,13,43,15.00
2016,03,29,13,44,15.00
2016,03,29,13,45,14.90
2016,03,29,13,46,14.80
2016,03,29,13,47,14.80
2016,03,29,13,48,14.70
2016,03,29,13,49,14.70
2016,03,29,13,50,14.70
2016,03,29,13,51,14.60
2016,03,29,13,52,14.50
2016,03,29,13,53,14.40
2016,03,29,13,54,14.30
2016,03,29,13,55,14.20
2016,03,29,13,56,14.10
2016,03,29,13,57,14.00
2016,03,29,13,58,13.90
2016,03,29,13,59,13.90
2016,03,29,14,00,13.90
2016,03,29,14,01,13.90
2016,03,29,14,02,13.90
2016,03,29,14,03,13.90
2016,03,29,14,04,13.90
2016,03,29,14,05,13.90
2016,03,29,14,06,13.90
2016,03,29,14,07,13.90
2016,03,29,14,08,13.90
2016,03,29,14,09,13.90
2016,03,29,14,10,14.00
2016,03,29,14,11,14.00
2016,03,29,14,12,14.00
2016,03,29,14,13,14.00
2016,03,29,14,14,14.00
2016,03,29,14,15,14.00
2016,03,29,14,16,14.10
2016,03,29,14,17,14.10
2016,03,29,14,18,14.20
2016,03,29,14,19,14.20
2016,03,29,14,20,14.30
2016,03,29,14,21,14.30
2016,03,29,14,22,14.30
2016,03,29,14,23,14.30
2016,03,29,14,24,14.30
2016,03,29,14,25,14.30
2016,03,29,14,26,14.20
2016,03,29,14,27,14.30
2016,03,29,14,28,14.30
2016,03,29,14,29,14.30
2016,03,29,14,30,14.30
2016,03,29,14,31,14.30
2016,03,29,14,32,14.30
2016,03,29,14,33,14.40
2016,03,29,14,34,14.40
2016,03,29,14,35,14.40
2016,03,29,14,36,14.40
2016,03,29,14,37,14.40
2016,03,29,14,38,14.40
2016,03,29,14,39,14.40
2016,03,29,14,40,14.40
2016,03,29,14,41,14.50
2016,03,29,14,42,14.50
2016,03,29,14,43,14.40
2016,03,29,14,44,14.40
2016,03,29,14,45,14.30
2016,03,29,14,46,14.20
2016,03,29,14,47,14.10
2016,03,29,14,48,14.10
2016,03,29,14,49,14.00
2016,03,29,14,50,13.90
2016,03,29,14,51,13.90
2016,03,29,14,52,13.90
2016,03,29,14,53,13.80
2016,03,29,14,54,13.70
2016,03,29,14,55,13.70
2016,03,29,14,56,13.60
2016,03,29,14,57,13.60
2016,03,29,14,58,13.60
2016,03,29,14,59,13.60
2016,03,29,15,00,13.60
2016,03,29,15,01,13.50
2016,03,29,15,02,13.60
2016,03,29,15,03,13.60
2016,03,29,15,04,13.60
2016,03,29,15,05,13.60
2016,03,29,15,06,13.60
2016,03,29,15,07,13.60
2016,03,29,15,08,13.70
2016,03,29,15,09,13.70
2016,03,29,15,10,13.80
2016,03,29,15,11,13.80
2016,03,29,15,12,13.80
2016,03,29,15,13,13.90
2016,03,29,15,14,13.90
2016,03,29,15,15,14.00
2016,03,29,15,16,14.00
2016,03,29,15,17,14.10
2016,03,29,15,18,14.10
2016,03,29,15,19,14.00
2016,03,29,15,20,13.90
2016,03,29,15,21,13.90
2016,03,29,15,22,13.90
2016,03,29,15,23,13.90
2016,03,29,15,24,13.90
2016,03,29,15,25,13.90
2016,03,29,15,26,13.90
2016,03,29,15,27,13.90
2016,03,29,15,28,13.90
2016,03,29,15,29,13.90
2016,03,29,15,30,13.90
2016,03,29,15,31,14.00
2016,03,29,15,32,14.00
2016,03,29,15,33,14.00
2016,03,29,15,34,14.10
2016,03,29,15,35,14.10
2016,03,29,15,36,14.10
2016,03,29,15,37,14.10
2016,03,29,15,38,14.10
2016,03,29,15,39,14.20
2016,03,29,15,40,14.20
2016,03,29,15,41,14.20
2016,03,29,15,42,14.10
2016,03,29,15,43,14.10
2016,03,29,15,44,14.10
2016,03,29,15,45,14.10
2016,03,29,15,46,14.00
2016,03,29,15,47,13.90
2016,03,29,15,48,13.90
2016,03,29,15,49,13.90
2016,03,29,15,50,13.90
2016,03,29,15,51,13.90
2016,03,29,15,52,13.90
2016,03,29,15,53,13.90
2016,03,29,15,54,13.90
2016,03,29,15,55,13.90
2016,03,29,15,56,13.90
2016,03,29,15,57,13.90
2016,03,29,15,58,13.90
2016,03,29,15,59,14.00
2016,03,29,16,00,14.00
2016,03,29,16,01,14.10
2016,03,29,16,02,14.00
2016,03,29,16,03,14.00
2016,03,29,16,04,13.90
2016,03,29,16,05,13.90
2016,03,29,16,06,13.90
2016,03,29,16,07,13.90
2016,03,29,16,08,14.00
2016,03,29,16,09,14.00
2016,03,29,16,10,14.10
2016,03,29,16,11,14.10
2016,03,29,16,12,14.20
2016,03,29,16,13,14.30
2016,03,29,16,14,14.30
2016,03,29,16,15,14.40
2016,03,29,16,16,14.40
2016,03,29,16,17,14.40
2016,03,29,16,18,14.40
2016,03,29,16,19,14.50
2016,03,29,16,20,14.50
2016,03,29,16,21,14.50
2016,03,29,16,22,14.40
2016,03,29,16,23,14.40
2016,03,29,16,24,14.40
2016,03,29,16,25,14.40
2016,03,29,16,26,14.40
2016,03,29,16,27,14.40
2016,03,29,16,28,14.30
2016,03,29,16,29,14.30
2016,03,29,16,30,14.30
2016,03,29,16,31,14.30
2016,03,29,16,32,14.30
2016,03,29,16,33,14.40
2016,03,29,16,34,14.40
2016,03,29,16,35,14.50
2016,03,29,16,36,14.50
2016,03,29,16,37,14.60
2016,03,29,16,38,14.60
2016,03,29,16,39,14.70
2016,03,29,16,40,14.70
2016,03,29,16,41,14.70
2016,03,29,16,42,14.70
2016,03,29,16,43,14.70
2016,03,29,16,44,14.80
2016,03,29,16,45,14.80
2016,03,29,16,46,14.70
2016,03,29,16,47,14.70
2016,03,29,16,48,14.70
2016,03,29,16,49,14.60
2016,03,29,16,50,14.60
2016,03,29,16,51,14.70
2016,03,29,16,52,14.70
2016,03,29,16,53,14.70
2016,03,29,16,54,14.70
2016,03,29,16,55,14.70
2016,03,29,16,56,14.70
2016,03,29,16,57,14.80
2016,03,29,16,58,14.80
2016,03,29,16,59,14.80
2016,03,29,17,00,14.80
2016,03,29,17,01,14.80
2016,03,29,17,02,14.80
2016,03,29,17,03,14.80
2016,03,29,17,04,14.80
2016,03,29,17,05,14.80
2016,03,29,17,06,14.80
2016,03,29,17,07,14.80
2016,03,29,17,08,14.80
2016,03,29,17,09,14.90
2016,03,29,17,10,14.90
2016,03,29,17,11,14.90
2016,03,29,17,12,15.00
2016,03,29,17,13,15.00
2016,03,29,17,14,15.00
2016,03,29,17,15,15.10
2016,03,29,17,16,15.00
2016,03,29,17,17,15.00
2016,03,29,17,18,15.00
2016,03,29,17,19,15.00
2016,03,29,17,20,15.00
2016,03,29,17,21,15.00
2016,03,29,17,22,15.00
2016,03,29,17,23,15.00
2016,03,29,17,24,15.00
2016,03,29,17,25,15.10
2016,03,29,17,26,15.10
2016,03,29,17,27,15.20
2016,03,29,17,28,15.20
2016,03,29,17,29,15.30
2016,03,29,17,30,15.30
2016,03,29,17,31,15.40
2016,03,29,17,32,15.40
2016,03,29,17,33,15.50
2016,03,29,17,34,15.50
2016,03,29,17,35,15.60
2016,03,29,17,36,15.60
2016,03,29,17,37,15.70
2016,03,29,17,38,15.80
2016,03,29,17,39,15.90
2016,03,29,17,40,16.00
2016,03,29,17,41,16.10
2016,03,29,17,42,16.20
2016,03,29,17,43,16.20